{"data":{"norad_id":58184,"intl_designator":"2023-167K","name":"STARLINK-30801","alt_names":[],"object_type":"PAYLOAD","status":"ACTIVE","operator":null,"country":"US","launch_date":"2023-10-30","launch_site_code":"AFETR","launch_vehicle":null,"mission":null,"orbit_class":"UNKNOWN","rcs_meters":null,"size_class":null,"mass_kg":null,"dimensions":null,"purposes":["comms"],"wikipedia_slug":null,"has_3d_model":false,"image_url":null,"decayed_at":null,"tle_current":{"epoch":"2026-05-25T03:32:46.273056Z","epoch_age_seconds":62605,"freshness":"FRESH","line1":"1 58184U 23167K   26145.14775779 -.00000448  00000+0 -67467-5 0  9992","line2":"2 58184  43.0040  72.0076 0001383 267.2754  92.7939 15.27576026142679","mean_motion":15.27576026,"eccentricity":0.0001383,"inclination_deg":43.004,"raan_deg":72.0076,"arg_perigee_deg":267.2754,"mean_anomaly_deg":92.7939,"bstar":-6.7467e-6,"rev_number":14267,"period_min":94.266993949275,"perigee_km":482.11209196829,"apogee_km":484.00989933389,"semimajor_km":6861.1979956511,"source":"CELESTRAK","updated_at":"2026-05-25T13:38:18.570273Z"}}}